Location: Aalen
(48.8330°N, 10.1000°E)
Time: 04:38:48
(UTC+01:00)

Envisat - Pass Details

Date: 04 December 2022
Orbit: 763 x 765 km, 98.2° (Epoch: 28 January)

Event Time Altitude Azimuth Distance (km) Brightness Sun altitude
Rises 04:41:32 0° 14° (NNE) 3,246 6.4 -30.9°
Reaches altitude 10° 04:43:51 10° 15° (NNE) 2,315 5.6 -30.5°
Enters shadow 04:46:01 26° 16° (NNE) 1,484 4.6 -30.1°
